2022-047AK (52427 NORAD) Tracking and Keplerian Element Data

This shows tracking and keplerian element data for the satellite.

Feedback or suggestion? Click here.




ElementValue
Catalog52427
Name2022-047AK
Epoch Orbit812
Epoch Day166.98496876
Epoch Year2022
RAAN251.8602
Inclination97.4509
Eccentricity0.0009105
Argument of Perigee197.664
Mean Anonmoly162.4276
Mean Motion15.12555287
Decay Rate0.00015999
L11 52427U 22047AK 22166.98496876 .00015999 00000+0 91908-3 0 9991
L22 52427 97.4509 251.8602 0009105 197.6640 162.4276 15.12555287 8128

Live tracking and technical data element details for 2022-047AK (NORAD 52427). 2022-047AK can be tracked NOW for your location showing map with azimuth and elevation plus other details from your city location.

Track the satellite on the map from your city or location and see movement details for azimuth, elevation, latitude, longitude, range, height, and movement on the map or in text.







IsCatalogInMostPopularTable: catalog: 52427, numindb: 1
Update: records affected: 1



GetName: 52427 2022-047AK

Hit Count: updated at: Sat, 25 Jun 2022 03:56:49 GMT